User: anonymous   Login
Location: Unspecified
(0.0000°N, 0.0000°E)
Time: 18:13:05
(UTC+00:00)
Language:

STARLINK-31073 - Orbit

View from above orbital plane
View from above orbital plane
View from above satellite
View from above satellite

Ground track
Ground track

The orbit is defined by the following mean orbital elements,

1 58773U          26145.07092955 +.00000000 +00000-0 +65102-4 0 00006
2 58773  53.1592  18.9585 0000865  91.3774 268.7326 15.30203792    09
Epoch (UTC): 25 May 2026 01:42:08
Eccentricity: 0.0000865
inclination: 53.1592°
perigee height: 475 km
apogee height: 476 km
right ascension of ascending node: 18.9585°
argument of perigee: 91.3774°
revolutions per day: 15.30203792
mean anomaly at epoch: 268.7326°

The dashed part of the orbit path shows where the satellite is in the earth's shadow,  

DLR